STARLINK-3343 (50822 NORAD) Tracking and Keplerian Element Data

This shows tracking and keplerian element data for the satellite.

Feedback or suggestion? Click here.




ElementValue
Catalog50822
NameSTARLINK-3343
Epoch Orbit380
Epoch Day22.91667824
Epoch Year2022
RAAN119.7682
Inclination53.2175
Eccentricity0.0001122
Argument of Perigee61.9087
Mean Anonmoly249.3953
Mean Motion15.75210916
Decay Rate-0.00821344
L11 50822U 22001V 22022.91667824 -.00821344 00000+0 -59034-2 0 9999
L22 50822 53.2175 119.7682 0001122 61.9087 249.3953 15.75210916 3806

Live tracking and technical data element details for STARLINK-3343 (NORAD 50822). STARLINK-3343 can be tracked NOW for your location showing map with azimuth and elevation plus other details from your city location.

Track the satellite on the map from your city or location and see movement details for azimuth, elevation, latitude, longitude, range, height, and movement on the map or in text.







IsCatalogInMostPopularTable: catalog: 50822, numindb: 1
Update: records affected: 1



GetName: 50822 STARLINK-3343

Hit Count: updated at: Mon, 24 Jan 2022 01:28:28 GMT